Вернуться в каталог

FENGYUN 1C DEB

АктивенPO
NORAD 30872·DEBRIS·🇨🇳 China

Запущен May 10, 1999 с Taiyuan Satellite Launch Center

Loading…

Ближайшие Пролёты (ближайшие 24 часа)

TLE

СвежийSource: Space-Track

Эпоха: Sep 14, 2026, 04:35 UTC

1 30872U 99025AXJ 26257.19156714  .00001479  00000-0  47321-3 0  9992
2 30872  99.1650 334.2132 0040777 300.1089  86.9018 14.40784017 16865

Отслеживайте FENGYUN 1C DEB в реальном времени с AllMySat

Download on the App Store